{"data":{"norad_id":49193,"epoch":"2026-09-20T03:10:56.606304Z","epoch_age_seconds":53735,"freshness":"FRESH","line1":"1 49193U 21083H   26263.13259961  .00000009  00000+0 -92989-5 0  9996","line2":"2 49193  87.9165 316.5897 0001765 100.4987 259.6344 13.18687053242510","mean_motion":13.18687053,"eccentricity":0.0001765,"inclination_deg":87.9165,"raan_deg":316.5897,"arg_perigee_deg":100.4987,"mean_anomaly_deg":259.6344,"bstar":-9.2989e-6,"rev_number":24251,"period_min":109.19952514313,"perigee_km":1188.4033679917,"apogee_km":1191.0748282543,"semimajor_km":7567.876098123,"source":"CELESTRAK","updated_at":"2026-09-20T09:00:44.661598Z"}}